Location: Newark
(35.6799°N, 139.7636°E)
Time: 10:15:21
(UTC+00:00)

Transit 2A - Pass Details

Date: 12 December 2019
Orbit: 601 x 958 km, 66.7° (Epoch: 27 January)

Event Time Altitude Azimuth Distance (km) Brightness Sun altitude
Rises 20:41:02 0° 205° (SSW) 3,161 9.1 -12.0°
Reaches altitude 10° 20:43:29 10° 206° (SSW) 2,185 8.3 -11.5°
Maximum altitude 20:48:25 90° 258° (WSW) 671 5.7 -10.6°
Drops below altitude 10° 20:52:58 10° 27° (NNE) 2,017 8.3 -9.8°
Sets 20:55:09 0° 27° (NNE) 2,898 9.1 -9.3°
